Tracking 26894 objects as of 2-Feb-2023
HD Live streaming from Space Station
objects crossing your sky now

NOAA 17 DEB

Track NOAA 17 DEB now!
10-day predictions


NORAD ID: 48724
Int'l Code: 2002-032BJ
Perigee: 735.6 km
Apogee: 795.8 km
Inclination: 98.7 °
Period: 100.0 minutes
Semi major axis: 7136 km
RCS: Unknown
Launch date: June 24, 2002
Source: United States (US)
Launch site: AIR FORCE WESTERN TEST RANGE (AFWTR)

Note: This is SATELLITE DEBRIS
Your satellite tracking list
Your tracking list is empty




NASA's NSSDC Master Catalog

Two Line Element Set (TLE):
1 48724U 02032BH  23032.16722651  .00005230  00000-0  16574-2 0  9997
2 48724  98.7296 357.7646 0042151  97.8770 262.7205 14.39978724 98440
Source of the keplerian elements: AFSPC